Vorticity
8 15 -17 4 2 6 10 14 16 -2 24 6 2 13 2 -1 4 5 1 6 3 3 3 5 5 7 6 6 4 2 2 3 4 4 2 2 14 12 8 7 9 8 6 5
20 -1 8 9 42 5 8 5 4 5 17 16 12 8 7 11 11 4 1 6 5 5 5 7 5 3 3 4 6 7 5 12 11 4 6 15 9 8 7 7 10 7 8 9
7 12 -2 11 1 1 4 9 5 4 8 13 6 2 2 4 6 9 12 12 7 9 8 4 2 5 4 4 4 5 11 11 10 15 10 8 4 4 4 4 2 2 4 7
20 9 9 5 5 3 9 -1 -3 -1 14 2 6 -1 -1 3 8 2 1 4 6 4 3 4 6 5 3 6 12 20 19 13 9 8 5 4 3 3 3 4 4 3 1 3
7 2 4 8 -3 4 -0 6 20 5 -1 9 2 12 17 -9 6 5 3 5 3 3 4 5 6 5 8 22 16 7 4 3 3 3 3 4 3 3 4 4 3 7 6 4
31 3 7 10 9 6 12 5 13 9 6 6 8 6 -1 3 12 18 8 5 3 4 5 7 6 16 22 8 4 4 5 3 1 3 3 2 1 1 2 3 6 5 6 7
-5 -5 -5 -7 14 9 6 10 4 9 9 9 11 3 11 -7 -2 7 7 6 7 9 14 19 21 11 6 1 3 3 2 1 2 4 3 2 2 3 3 4 6 7 8 7
10 15 8 5 15 8 16 2 1 2 6 6 8 13 16 18 17 19 22 24 24 22 17 7 6 4 -0 -1 0 1 2 2 3 3 3 3 3 4 4 7 7 6 6 8
6 -2 4 15 7 1 13 7 3 -5 5 7 14 17 18 16 25 22 14 10 7 4 1 2 2 2 0 1 2 2 3 3 4 3 4 5 4 5 5 2 4 7 7 9
15 1 13 6 2 4 7 8 8 8 5 15 15 14 9 5 1 3 8 6 3 1 4 3 3 2 3 2 2 2 3 4 4 4 3 4 6 10 7 0 7 8 8 11
3 4 13 5 7 6 11 8 8 7 10 11 11 9 1 2 6 7 3 4 4 4 2 3 4 4 3 4 4 4 4 5 5 5 6 7 5 7 7 8 7 9 9 7
7 5 5 4 7 10 9 9 11 15 9 11 8 -2 3 5 7 3 2 1 2 2 2 2 2 4 4 4 5 7 5 7 8 7 7 10 8 7 6 7 7 8 10 7
5 6 7 7 8 8 11 13 13 9 10 8 3 2 2 4 1 2 3 2 2 2 2 3 4 5 5 5 6 6 8 8 7 8 9 9 11 10 9 7 10 10 9 5
6 7 8 10 10 13 12 11 9 9 8 4 2 -2 5 1 0 1 -0 3 3 2 2 2 4 5 6 7 6 7 11 5 9 8 10 11 11 8 7 10 8 10 7 5
13 12 14 11 13 13 9 8 8 7 6 2 0 0 2 2 4 4 3 2 2 2 3 5 6 6 7 9 9 10 8 9 8 10 11 11 6 7 10 8 6 5 5 6
10 11 12 10 9 9 8 9 7 5 5 4 4 5 3 1 2 2 2 2 3 6 7 7 9 10 10 9 12 9 8 9 11 12 11 9 9 11 7 7 7 7 3 3
12 11 10 8 8 7 9 9 10 6 4 3 2 4 2 3 4 4 5 6 6 7 9 9 9 10 11 11 10 9 10 13 12 8 10 9 13 6 3 2 2 -1 -1 7
10 10 7 4 4 5 7 8 7 7 6 4 5 5 5 5 8 7 7 7 8 8 10 12 13 12 10 8 11 12 12 8 9 8 8 8 2 3 11 11 2 -4 -11 8
13 8 7 7 8 9 9 10 9 8 8 8 10 8 7 6 6 7 6 9 10 12 12 11 10 10 11 12 11 8 10 8 11 11 7 4 3 9 4 5 15 13 8 20
9 9 8 8 10 12 12 10 7 8 6 7 7 7 7 8 8 8 12 11 13 12 12 12 12 12 10 6 8 8 12 11 7 10 5 4 1 -2 7 10 11 15 20 -2
9 8 7 7 5 4 2 4 4 4 2 7 7 6 9 12 13 13 10 12 12 12 13 13 9 5 6 9 12 11 3 4 4 -0 8 10 17 -1 -16 9 23 12 -3 -3
5 3 2 4 3 3 2 3 6 6 6 7 10 11 12 10 10 10 10 11 12 13 11 4 8 10 11 11 9 6 3 2 10 8 3 12 22 -2 -3 26 19 5 6 8
3 4 4 5 2 4 2 6 4 6 9 11 11 11 11 9 9 10 11 14 10 4 8 7 10 11 9 10 15 -11 -7 -2 26 11 1 -10 3 12 26 16 -7 17 8 25
3 5 5 6 2 4 5 4 6 11 12 11 10 8 8 10 13 13 8 7 7 8 11 9 8 7 7 5 8 19 9 12 7 41 4 19 14 18 -7 12 4 12 15 18
3 4 4 5 5 6 6 4 15 11 10 8 7 11 10 12 8 9 8 12 11 7 7 5 5 8 5 4 5 6 8 19 1 29 26 18 5 -17 -8 26 30 22 13 17
5 4 4 6 7 9 10 11 12 6 8 11 8 8 9 8 7 11 10 3 5 7 8 6 5 6 7 17 12 -1 2 7 23 13 -3 -9 -23 9 27 11 8 15 21 17
Height
5760 5762 5766 5772 5773 5777 5781 5784 5788 5786 5785 5788 5790 5789 5790 5791 5792 5792 5793 5794 5794 5793 5792 5792 5793 5792 5792 5792 5791 5788 5787 5784 5783 5781 5779 5776 5772 5768 5765 5762 5758 5755 5752 5750
5764 5765 5766 5769 5771 5776 5781 5784 5785 5785 5786 5787 5788 5789 5789 5790 5790 5791 5791 5791 5791 5791 5791 5791 5790 5790 5789 5789 5788 5785 5783 5781 5779 5776 5773 5769 5764 5760 5757 5755 5753 5748 5743 5738
5762 5765 5766 5769 5772 5776 5781 5784 5783 5786 5786 5786 5788 5790 5787 5789 5789 5790 5790 5790 5789 5789 5789 5788 5788 5788 5786 5785 5784 5782 5779 5777 5774 5770 5768 5764 5760 5757 5754 5750 5746 5741 5735 5730
5760 5762 5765 5770 5774 5777 5779 5780 5780 5783 5785 5785 5785 5790 5785 5787 5789 5789 5788 5788 5788 5787 5787 5786 5785 5784 5783 5781 5779 5777 5775 5772 5769 5767 5764 5760 5756 5753 5749 5744 5739 5733 5728 5721
5760 5765 5769 5774 5773 5776 5771 5778 5780 5782 5783 5774 5784 5788 5785 5783 5787 5787 5786 5785 5785 5784 5783 5782 5781 5780 5778 5777 5775 5773 5771 5769 5767 5763 5760 5756 5752 5747 5742 5736 5729 5723 5718 5713
5757 5765 5768 5771 5773 5775 5777 5778 5779 5781 5783 5783 5786 5785 5789 5783 5783 5782 5783 5782 5781 5780 5779 5778 5777 5776 5774 5773 5772 5770 5768 5765 5762 5758 5754 5750 5745 5739 5733 5727 5721 5714 5708 5702
5762 5764 5767 5770 5772 5773 5775 5777 5780 5779 5781 5782 5781 5782 5784 5785 5779 5777 5778 5777 5777 5776 5776 5775 5773 5772 5771 5769 5767 5765 5763 5760 5756 5751 5746 5741 5735 5729 5724 5718 5712 5706 5699 5692
5764 5766 5765 5768 5770 5773 5773 5777 5778 5778 5780 5782 5778 5778 5780 5777 5775 5774 5774 5774 5773 5773 5772 5771 5770 5768 5766 5765 5762 5760 5757 5753 5748 5743 5737 5732 5726 5721 5715 5709 5702 5695 5688 5680
5763 5759 5764 5765 5767 5770 5771 5773 5774 5775 5775 5775 5776 5776 5774 5773 5773 5772 5771 5771 5770 5770 5769 5768 5766 5764 5762 5759 5756 5753 5749 5745 5740 5734 5728 5723 5717 5710 5704 5699 5692 5685 5677 5669
5759 5761 5761 5763 5765 5767 5767 5769 5772 5771 5771 5771 5775 5774 5776 5772 5771 5770 5770 5769 5768 5767 5766 5764 5762 5760 5757 5753 5750 5746 5741 5736 5731 5725 5720 5714 5707 5701 5695 5688 5681 5673 5665 5657
5756 5758 5758 5759 5761 5763 5765 5765 5767 5767 5768 5768 5770 5773 5769 5769 5769 5768 5767 5766 5764 5763 5761 5759 5757 5754 5750 5746 5741 5737 5732 5727 5721 5715 5710 5704 5697 5691 5685 5677 5669 5661 5652 5644
5752 5754 5755 5757 5757 5759 5760 5762 5762 5763 5766 5766 5766 5768 5766 5766 5765 5765 5764 5762 5760 5757 5755 5752 5749 5746 5741 5736 5731 5728 5722 5717 5711 5705 5699 5692 5685 5679 5671 5664 5656 5647 5639 5630
5750 5751 5752 5753 5756 5756 5757 5758 5759 5760 5762 5763 5764 5765 5762 5762 5761 5760 5759 5757 5754 5751 5748 5744 5740 5736 5731 5726 5720 5717 5712 5706 5699 5693 5687 5680 5674 5666 5659 5650 5642 5634 5625 5617
5744 5747 5749 5751 5752 5751 5753 5754 5755 5756 5758 5760 5761 5760 5758 5756 5755 5753 5753 5750 5746 5744 5740 5735 5730 5726 5721 5716 5710 5705 5700 5694 5688 5681 5674 5667 5660 5653 5645 5637 5628 5620 5611 5602
5740 5742 5743 5745 5745 5747 5748 5750 5752 5753 5756 5755 5759 5755 5756 5750 5746 5746 5743 5742 5739 5735 5731 5725 5720 5715 5710 5705 5699 5693 5688 5682 5675 5668 5661 5654 5647 5640 5632 5624 5615 5606 5597 5588
5736 5737 5739 5740 5742 5743 5744 5746 5748 5750 5750 5750 5750 5749 5747 5743 5741 5738 5735 5732 5728 5724 5719 5715 5710 5703 5698 5692 5688 5682 5676 5670 5663 5656 5649 5643 5635 5627 5619 5611 5601 5592 5583 5573
5731 5733 5735 5737 5738 5738 5742 5743 5744 5744 5744 5743 5741 5742 5739 5734 5733 5730 5725 5721 5718 5713 5708 5703 5698 5692 5686 5680 5676 5670 5664 5657 5651 5644 5637 5631 5622 5614 5606 5597 5587 5578 5568 5558
5727 5729 5731 5733 5734 5735 5738 5738 5738 5737 5737 5735 5733 5733 5730 5726 5723 5719 5714 5710 5705 5702 5697 5692 5687 5681 5675 5669 5664 5657 5651 5645 5639 5632 5624 5616 5609 5601 5592 5582 5573 5563 5552 5542
5723 5725 5727 5728 5729 5731 5732 5732 5732 5731 5731 5726 5726 5724 5721 5716 5713 5709 5702 5702 5695 5690 5684 5680 5674 5668 5662 5656 5651 5645 5639 5633 5626 5618 5611 5603 5595 5586 5577 5568 5558 5547 5536 5526
5720 5721 5723 5724 5724 5725 5725 5725 5725 5724 5722 5719 5718 5715 5711 5707 5703 5698 5692 5687 5682 5678 5672 5667 5662 5656 5651 5645 5639 5633 5626 5620 5612 5605 5598 5590 5581 5572 5562 5552 5543 5532 5521 5510
5716 5717 5718 5718 5719 5719 5719 5718 5717 5717 5716 5711 5708 5704 5700 5695 5691 5686 5681 5676 5672 5666 5661 5657 5651 5645 5639 5634 5627 5620 5613 5606 5599 5591 5582 5573 5565 5556 5547 5537 5526 5515 5504 5495
5712 5713 5713 5713 5713 5712 5711 5709 5709 5707 5703 5699 5695 5691 5687 5683 5678 5674 5670 5665 5660 5655 5651 5647 5640 5634 5627 5620 5614 5607 5601 5594 5585 5574 5566 5558 5550 5541 5530 5521 5510 5499 5490 5480
5707 5707 5707 5708 5706 5702 5700 5699 5697 5694 5691 5687 5684 5680 5675 5671 5667 5662 5657 5654 5648 5642 5637 5632 5626 5620 5614 5608 5601 5593 5588 5580 5570 5562 5553 5543 5533 5523 5513 5504 5495 5482 5473 5463
5699 5699 5699 5699 5697 5694 5691 5688 5685 5683 5679 5676 5672 5668 5664 5660 5656 5650 5645 5643 5636 5631 5626 5620 5615 5608 5602 5596 5590 5584 5576 5565 5555 5546 5536 5526 5517 5508 5498 5487 5479 5470 5459 5450
5692 5691 5689 5689 5687 5685 5681 5676 5676 5671 5667 5664 5661 5656 5653 5649 5644 5639 5633 5629 5624 5619 5614 5608 5601 5595 5589 5581 5574 5567 5558 5548 5539 5530 5520 5511 5501 5491 5483 5473 5463 5454 5445 5437
5684 5681 5681 5678 5677 5674 5670 5666 5665 5660 5657 5654 5649 5644 5640 5636 5631 5626 5622 5617 5612 5606 5600 5594 5587 5580 5573 5566 5559 5551 5541 5532 5522 5512 5503 5493 5487 5477 5467 5458 5450 5442 5435 5425